Location: Unspecified
(0.0000°N, 0.0000°E)
Time: 06:36:15
(UTC+00:00)

S-56A Canister/Altair - Pass Details

Date: 16 December 2018
Orbit: 633 x 2499 km, 38.9° (Epoch: 16 June)

Event Time Altitude Azimuth Distance (km) Brightness Sun altitude
Rises 11:06:15 0° 309° (NW) 6,168 11.9 63.8°
Reaches altitude 10° 11:10:24 10° 308° (NW) 5,115 11.6 64.2°
Maximum altitude 11:25:03 77° 224° (SW) 2,135 11.4 65.5°
Drops below altitude 10° 11:35:43 10° 138° (SE) 3,835 11.6 66.2°
Sets 11:38:23 0° 136° (SE) 4,597 11.8 66.3°
